Terug naar catalogus

COSMOS 1481 DEB

LostHEO
NORAD 33531·DEBRIS·🇷🇺 Russia

Gelanceerd Jul 8, 1983 vanaf Plesetsk Cosmodrome

Loading…

Volgende Passages (komende 24 uur)

TLE

VerouderdSource: Space-Track

Epoch: Mar 21, 2008, 06:36 UTC

1 33531U 83070K   08081.27506578 -.00000372  00000-0  10000-3 0  9997
2 33531  69.2652 357.9873 6329024 106.3733 328.5400  2.03429651 14906

Volg COSMOS 1481 DEB in realtime met AllMySat

Download on the App Store